TDRS 12                 
1 39504U 14004A   19261.05882931 -.00000274  00000-0  00000+0 0  9998
2 39504   4.9999 336.9280 0003626 222.3299 137.7257  1.00273940 20741
ATLAS 5 CENTAUR R/B     
1 39505U 14004B   19260.31767533 -.00000022  00000-0  00000-0 0  9999
2 39505  25.7077  29.4866 5755328 348.8808   2.3664  2.06522458 42620